Tracking 28790 objects as of 19-Apr-2024
HD Live streaming from Space Station
objects crossing your sky now

COSMOS 249 DEB *

Track COSMOS 249 DEB * now!
10-day predictions


NORAD ID: 3753
Int'l Code: 1968-091AR
Perigee: 494.1 km
Apogee: 722.4 km
Inclination: 62.4 °
Period: 96.7 minutes
Semi major axis: 6979 km
RCS: 0.031 m2 (small)
Launch date: October 20, 1968
Source: Commonwealth of Independent States (former USSR) (CIS)
Launch site: TYURATAM MISSILE AND SPACE COMPLEX (TTMTR)

Note: This is SATELLITE DEBRIS
Your satellite tracking list
Your tracking list is empty




NASA's NSSDC Master Catalog

Two Line Element Set (TLE):
1 03753U 68091AR  24109.83209654  .00024217  00000-0  20034-2 0  9992
2 03753  62.4249 293.3295 0163621 283.6814  74.6104 14.88983591817892
Source of the keplerian elements: AFSPC